Dewpoint
55 56 56 56 57 57 57 57 58 58 58 58 58 58 58 59 58 49 41 47 50 55 58 52 44 42 43 42 43 42 35 33 33 31 31 38 39 46 52 54 55 57 55 57 61
55 56 56 56 57 57 57 57 57 57 58 58 58 58 58 59 52 44 47 52 54 55 53 47 44 43 41 40 41 36 34 34 35 34 35 41 41 48 51 52 55 56 59 60 60
55 55 56 56 56 56 57 57 57 57 57 57 58 58 59 58 47 37 51 51 52 53 52 49 45 44 41 40 37 35 34 34 33 33 35 40 39 52 51 51 54 54 58 59 59
56 56 56 56 56 56 56 56 56 56 57 57 57 59 59 51 29 35 53 52 54 51 49 45 42 41 38 36 36 30 32 33 35 37 41 38 41 39 51 51 56 57 59 58 58
56 56 56 56 56 56 56 56 56 56 56 57 57 59 52 40 32 35 54 49 41 44 42 42 41 42 40 39 37 30 30 32 32 37 39 39 37 39 51 54 56 58 58 58 58
56 56 56 56 56 55 55 55 55 56 56 57 57 58 46 30 34 35 37 38 40 43 42 41 43 43 41 39 37 33 34 33 33 36 38 36 36 47 50 56 58 58 58 58 57
56 56 56 55 55 55 55 55 55 56 56 56 57 52 42 38 34 35 37 37 39 43 41 42 45 43 42 40 37 35 33 32 31 31 34 36 37 45 52 54 53 57 57 57 57
56 56 55 55 55 54 54 55 56 57 56 56 56 50 39 39 35 35 36 37 38 39 41 43 45 43 40 40 38 35 30 27 29 31 30 32 31 37 52 51 50 54 56 56 57
56 55 54 54 55 55 56 56 56 57 55 56 48 44 34 43 35 35 37 36 38 39 41 40 42 40 38 35 32 28 27 28 26 29 27 30 30 46 48 48 46 48 52 56 57
55 54 54 55 55 55 56 56 55 51 51 45 41 31 31 30 37 37 37 36 36 37 38 41 39 32 30 29 25 26 25 24 26 25 26 24 24 46 50 49 50 47 52 55 56
55 54 54 55 55 55 53 45 37 38 36 30 29 30 32 35 39 38 36 35 35 34 28 33 30 26 27 29 29 26 23 23 25 26 23 24 25 30 46 45 45 51 54 54 55
54 54 54 54 54 54 48 41 42 42 36 37 33 33 34 38 35 35 36 32 32 29 30 29 26 28 31 30 27 25 24 24 26 28 24 22 22 25 46 44 45 45 52 54 55
53 54 54 54 54 48 41 42 44 44 39 37 34 29 32 37 34 33 34 34 31 28 28 27 27 30 31 27 26 25 25 26 27 27 26 22 21 21 33 42 46 49 51 54 54
53 54 54 53 46 43 42 45 44 44 33 30 29 34 34 37 32 36 37 34 32 27 29 30 29 29 30 24 27 24 28 29 28 25 21 21 16 17 21 21 46 50 50 52 52
52 53 54 53 44 42 43 45 43 42 9 29 28 35 34 31 28 32 37 35 30 27 28 24 26 27 29 26 28 26 29 28 28 25 23 19 20 20 19 19 25 44 49 51 52
53 53 52 46 46 45 46 45 43 32 11 23 28 26 26 32 30 29 34 35 32 30 30 28 31 31 29 29 30 28 28 29 27 26 21 21 17 14 20 22 24 25 33 48 51
52 51 48 44 42 46 47 43 30 20 18 19 19 26 24 24 23 26 24 24 20 16 15 20 25 27 30 25 27 28 26 21 17 19 18 22 19 15 21 21 24 26 29 39 48
52 50 49 44 46 47 44 31 14 14 17 25 23 24 22 21 21 21 19 21 22 20 18 18 13 21 24 27 26 27 25 20 15 15 16 18 13 19 23 25 25 26 29 31 33
51 47 46 46 45 45 37 26 15 21 23 21 19 17 18 23 20 16 14 19 22 20 11 17 11 21 27 28 27 20 21 23 21 23 17 17 15 19 25 26 28 28 29 30 37
45 43 46 45 45 43 31 25 22 26 27 25 14 14 10 9 13 11 9 20 25 23 21 19 15 19 23 27 30 25 26 17 22 15 14 15 14 21 21 22 27 26 27 29 32
46 29 45 44 43 37 25 27 25 26 29 24 20 15 11 11 13 10 7 21 23 24 22 21 17 15 15 20 19 21 23 20 20 19 16 14 16 23 19 23 24 25 26 27 32
37 21 44 44 30 34 29 27 30 26 30 29 25 23 18 16 14 12 9 18 24 25 20 21 16 13 8 19 23 21 20 18 16 12 15 13 13 14 18 22 22 21 22 23 24
31 31 45 42 15 26 26 25 25 26 27 28 26 25 22 19 12 15 17 27 26 25 23 21 10 7 8 9 15 17 18 20 18 19 16 11 11 15 15 16 18 19 21 21 21
32 24 36 38 34 28 20 22 24 30 27 26 24 22 22 20 21 17 17 24 25 26 34 29 17 8 6 3 14 14 15 16 14 17 13 15 12 13 15 16 16 18 20 20 20
33 22 31 22 32 30 28 27 25 21 27 26 22 23 21 18 16 12 17 15 22 33 27 23 20 18 18 18 19 17 17 16 16 15 12 10 10 10 11 12 15 19 22 22 23
32 29 33 27 26 24 28 23 25 25 22 22 23 23 21 18 17 16 19 17 15 22 25 27 21 21 19 19 18 16 15 13 14 14 15 14 13 14 14 15 19 22 23 23 23
39 37 27 23 22 20 20 23 25 26 25 25 22 17 17 19 22 22 22 22 21 19 22 22 24 20 15 16 14 9 12 12 11 15 15 13 15 16 16 21 22 22 23 23 24
Lifted_Index
8 8 8 7 7 7 7 7 7 7 7 6 6 6 6 6 6 7 7 7 5 3 1 0 1 1 1 0 0 0 1 1 2 2 2 1 -0 -1 -2 -2 -2 -2 -2 -2 -2
8 8 8 7 7 7 7 7 7 7 6 6 6 6 6 6 6 7 7 6 5 3 1 1 1 1 0 0 0 0 1 1 1 1 1 1 -1 -1 -2 -1 -2 -2 -2 -2 -2
8 8 8 8 7 7 7 7 6 6 6 6 6 6 5 6 7 7 7 6 5 3 2 1 1 1 0 0 0 1 1 1 1 1 1 0 -0 -1 -1 -1 -1 -2 -3 -2 -2
8 8 8 8 8 7 7 7 7 6 6 6 6 5 6 6 7 8 7 6 5 4 3 2 1 1 1 0 1 1 1 1 1 1 0 0 0 0 -0 -0 -1 -2 -2 -2 -2
8 8 8 8 8 7 7 7 7 6 6 6 5 5 6 7 8 8 7 7 6 5 4 2 2 1 1 1 1 1 1 1 1 1 0 1 1 1 0 -0 -0 -1 -2 -2 -2
8 8 8 8 8 8 8 7 7 7 6 5 5 5 6 7 8 8 7 7 6 5 4 3 2 1 1 1 1 1 1 1 1 1 0 1 1 0 -0 -0 -0 -1 -1 -1 -1
8 8 8 8 8 8 8 7 7 6 6 5 5 5 6 7 7 7 7 6 6 5 4 3 2 2 1 1 1 1 1 1 1 1 0 0 0 0 -0 -0 0 -0 -1 -1 -1
8 8 8 8 8 8 8 7 7 6 6 5 5 5 6 7 7 7 6 6 5 5 4 3 2 2 1 1 1 1 1 1 1 1 0 0 -0 -0 -1 -0 0 1 -0 -1 -2
8 8 8 8 8 8 8 7 7 7 6 6 6 6 6 6 6 6 6 5 5 4 4 3 3 2 2 2 1 1 0 0 0 0 0 0 -1 -1 -1 -1 0 1 1 -0 -1
8 8 8 8 8 8 8 7 7 7 6 6 6 6 6 6 6 6 5 5 5 4 4 3 3 3 3 2 2 1 0 0 0 0 1 0 -1 -2 -1 -1 -0 0 0 0 -0
8 8 8 8 8 8 7 7 7 7 6 6 6 6 6 6 6 5 5 5 4 4 4 4 4 4 3 2 2 1 1 1 0 1 1 1 0 -1 -1 -0 0 0 0 -0 -0
9 8 8 8 8 8 8 7 7 7 6 6 6 6 6 6 6 5 5 5 4 4 4 4 4 4 3 3 2 2 2 2 1 1 1 1 1 1 -0 -0 0 1 0 -0 -0
9 8 8 8 8 8 8 8 8 7 5 5 5 6 6 6 5 5 5 5 4 4 4 4 4 4 4 3 3 3 3 3 2 2 1 2 2 2 1 -0 -1 -1 -1 -1 -1
9 8 8 8 8 8 8 8 8 6 4 4 5 5 6 6 5 5 5 5 4 4 4 3 4 4 4 4 4 3 3 3 3 2 2 2 2 2 2 1 -1 -2 -2 -2 -1
9 8 8 8 8 8 8 8 7 5 3 3 4 5 5 5 5 5 5 5 4 4 4 3 3 4 4 4 4 4 3 2 2 2 2 2 2 3 3 3 1 -0 -1 -2 -2
9 9 9 9 8 8 8 7 5 3 2 3 4 4 4 4 5 5 5 5 4 4 3 3 3 4 4 4 4 4 3 2 2 2 2 2 3 3 3 4 4 3 1 -0 -1
10 10 9 9 8 8 8 6 4 2 3 3 4 4 4 4 4 5 5 4 4 4 3 3 3 4 4 4 4 4 3 2 1 1 2 3 3 3 4 4 5 5 4 2 1
11 11 10 9 8 8 7 5 3 3 3 4 4 4 4 4 4 4 4 4 5 4 3 3 3 4 5 5 5 4 4 3 2 1 2 3 3 3 4 4 5 6 6 5 3
11 10 9 9 9 8 6 4 3 4 4 4 4 4 3 4 4 4 4 4 5 5 5 4 3 4 5 5 5 5 4 4 3 2 2 3 3 4 4 4 5 6 6 6 6
11 10 9 9 9 7 5 4 4 5 5 5 4 4 4 4 4 4 4 5 5 6 6 5 4 5 5 5 5 5 5 5 4 3 2 2 3 4 4 5 5 5 6 6 6
10 10 10 10 9 8 6 5 5 6 6 5 5 4 4 4 4 4 4 5 6 6 6 6 5 5 5 6 6 6 6 6 5 4 3 2 3 4 5 5 5 6 6 6 6
11 10 10 10 9 8 7 6 6 6 6 6 6 5 5 5 5 4 5 5 6 6 6 7 6 5 5 6 7 7 7 7 7 5 4 3 3 4 5 6 6 7 6 6 6
11 10 10 10 9 8 8 7 7 7 6 6 6 7 6 6 5 5 5 6 6 7 7 7 6 5 5 6 7 7 7 7 7 6 4 3 4 5 6 6 7 7 7 7 7
11 11 10 10 10 9 9 8 7 7 7 7 7 7 7 6 6 6 6 7 7 7 7 7 6 5 5 6 7 6 6 7 7 6 5 4 4 5 6 7 7 7 7 7 7
11 11 11 10 10 10 10 9 8 8 8 7 7 7 7 7 6 6 7 7 7 7 8 8 7 6 6 7 7 6 5 5 5 5 5 5 5 6 7 7 7 7 7 7 7
12 11 11 11 11 10 10 9 8 8 8 8 7 8 7 7 7 7 7 7 7 7 7 7 7 6 5 6 6 5 5 5 5 5 5 6 6 6 7 7 7 7 7 7 7
12 12 12 11 11 10 9 9 8 8 8 8 8 8 8 8 9 9 8 7 6 6 6 6 7 6 5 5 5 4 4 4 5 5 6 6 6 7 7 7 7 7 7 7 7